Wind_Speed
27 28 29 30 31 32 32 33 34 34 35 36 37 37 38 38 39 39 40 41 42 43 44 45 46 46 47 47 48 48 48 48 48 48 48 48 48 48 47 47 47 46 45
28 29 30 31 32 33 33 34 35 35 36 36 37 37 38 39 39 40 41 42 43 44 45 46 47 48 49 49 50 51 51 51 51 52 52 52 51 51 51 51 51 50 50
30 31 32 33 33 34 34 35 35 36 36 37 37 38 38 39 40 41 41 42 44 45 46 47 48 49 49 50 51 51 52 52 53 53 54 54 54 54 54 54 54 54 54
31 32 33 34 34 35 35 35 36 36 37 37 37 38 39 40 40 41 42 43 44 45 46 47 48 49 50 51 52 53 53 54 54 55 55 56 56 56 57 57 57 57 56
33 33 34 34 34 35 35 36 36 36 37 38 38 38 39 39 40 41 42 43 44 45 46 48 49 50 51 52 53 54 55 55 56 56 57 57 57 58 58 59 59 59 59
33 34 34 34 34 35 35 36 36 37 37 38 38 38 39 40 41 42 43 44 45 46 47 48 50 51 52 53 54 55 56 57 57 58 59 59 60 60 60 61 61 61 61
34 34 34 35 35 36 36 37 37 38 39 40 40 40 40 41 42 44 44 45 47 48 49 50 51 52 54 55 56 58 59 60 61 61 62 62 62 63 63 63 64 64 64
35 35 35 36 36 37 38 38 39 40 41 43 43 43 42 42 44 45 47 48 49 51 53 54 56 57 58 59 61 62 63 64 65 66 66 67 67 67 67 67 67 67 67
36 37 37 38 38 39 40 41 42 43 43 45 47 48 48 47 47 47 49 51 53 55 57 58 60 61 62 63 64 65 67 68 69 70 71 71 71 71 71 71 71 71 71
39 39 40 40 41 42 43 43 45 46 46 47 49 52 53 54 54 53 52 53 56 57 59 61 63 65 66 67 68 69 70 71 72 74 75 76 76 77 77 77 76 76 76
40 41 42 43 43 44 45 46 47 49 50 51 53 54 56 58 60 61 59 58 59 60 62 64 66 67 69 71 72 73 74 75 76 77 78 79 80 81 81 82 82 82 81
42 43 44 44 45 46 48 49 50 52 53 55 56 57 59 60 62 64 65 65 64 64 65 66 68 70 72 74 76 77 78 79 80 81 82 83 84 85 86 86 86 87 86
43 44 45 46 47 49 50 51 53 54 55 57 58 59 61 63 65 67 68 69 69 69 69 70 71 73 75 76 78 79 81 82 83 84 84 85 86 87 88 89 90 90 90
45 46 47 49 50 51 53 54 55 56 57 59 60 61 63 65 67 69 71 73 74 73 73 73 75 76 78 79 81 82 83 84 85 85 86 86 86 87 88 89 90 90 91
48 49 50 51 52 53 55 56 57 58 59 60 62 64 65 67 69 71 73 75 77 77 76 76 78 79 81 82 83 84 84 85 85 86 85 85 84 84 84 85 86 87 88
50 50 52 53 54 55 56 57 58 60 61 63 65 66 68 69 71 73 75 76 79 81 81 80 81 82 83 84 84 84 84 83 82 82 81 80 79 79 78 78 79 80 81
51 52 53 54 55 57 58 59 61 62 64 65 66 68 70 72 73 75 77 78 80 82 84 82 83 84 84 84 83 82 80 77 75 74 72 71 71 70 70 70 70 71 71
53 54 55 56 57 59 60 61 62 64 65 66 68 70 71 74 75 77 79 80 82 83 85 84 82 82 81 80 78 75 72 69 67 65 64 62 62 61 61 61 60 61 62
55 56 57 58 59 60 61 63 64 65 67 68 70 72 74 76 77 79 81 82 83 84 84 84 80 78 75 72 69 66 64 61 60 58 56 55 55 54 54 53 53 54 54
56 57 58 59 60 61 62 64 65 67 68 70 72 74 76 78 80 81 82 82 82 82 80 78 75 71 67 64 62 59 57 55 53 52 51 50 49 49 48 48 49 48 49
58 58 59 60 61 62 64 66 67 68 70 72 75 77 79 80 82 82 81 80 79 77 74 71 67 63 59 57 55 54 52 50 48 47 47 46 46 46 46 46 45 45 45
58 60 61 62 62 64 66 68 70 72 74 76 77 79 80 81 81 79 78 76 74 71 67 64 60 56 53 52 50 49 47 46 44 44 44 43 44 43 44 44 44 44 44
59 61 61 63 64 66 68 70 73 75 77 78 80 81 80 79 77 75 72 69 66 63 60 58 54 51 49 47 46 45 45 44 42 42 42 41 42 41 42 42 42 42 42
61 61 63 64 66 68 71 74 76 78 79 81 81 80 78 75 72 69 66 62 58 56 54 53 50 47 45 43 43 43 42 41 40 40 40 39 39 39 40 40 40 40 40
62 63 65 67 69 71 74 77 80 81 81 81 79 76 74 70 66 64 61 57 53 51 50 48 46 44 42 41 42 41 41 40 39 38 38 38 37 37 36 36 37 37 37
63 65 67 69 72 75 78 81 83 83 82 78 75 71 68 65 61 58 56 52 49 47 45 43 42 41 40 40 40 40 39 38 37 35 35 36 35 35 34 34 36 36 36
Wind_Direction
284 283 283 283 282 282 281 279 278 277 275 274 273 273 272 272 271 270 270 269 269 268 268 267 267 267 267 267 267 267 267 267 267 267 267 267 268 268 268 269 269 269 270
285 284 283 282 282 282 281 280 279 278 277 276 275 274 274 273 273 272 272 271 271 270 270 269 269 268 268 268 268 268 268 268 268 267 267 267 267 267 267 268 268 268 269
286 285 285 284 283 282 282 281 280 278 277 276 276 275 274 273 273 273 273 272 272 272 271 271 271 270 270 270 269 269 269 269 268 268 268 268 267 267 267 267 267 267 267
286 286 285 285 284 283 282 281 280 279 278 277 276 276 275 275 274 274 274 273 273 274 273 273 272 272 271 271 270 270 269 269 268 268 268 267 267 267 267 266 266 266 266
288 288 287 286 285 284 283 282 281 280 278 277 277 276 276 275 275 275 274 275 275 275 275 275 274 274 273 273 272 272 271 270 269 269 268 267 267 267 266 266 266 266 265
289 289 288 287 286 285 284 283 282 281 280 279 278 277 277 277 276 276 276 276 276 276 276 276 275 275 275 274 274 273 272 271 271 270 269 268 268 267 266 266 266 265 265
289 288 288 287 286 285 284 284 283 283 282 281 279 278 278 278 278 278 278 278 278 277 277 277 276 276 276 275 275 274 274 273 272 271 270 269 269 268 267 266 266 265 265
289 288 288 288 288 287 286 285 285 284 284 283 282 280 279 278 280 280 281 280 280 279 279 279 278 278 277 276 276 275 275 274 273 272 272 271 270 269 268 267 266 265 265
289 289 289 288 288 287 287 286 286 285 285 285 285 284 282 279 278 278 280 280 281 281 281 280 280 279 278 277 276 276 275 274 274 273 272 272 271 270 269 267 266 266 265
290 290 289 289 289 289 288 288 288 287 287 287 287 287 286 285 283 280 278 279 280 280 280 280 280 280 279 278 277 276 275 274 274 273 273 272 271 270 269 268 267 266 265
291 290 290 290 289 289 288 288 288 288 288 288 288 288 288 288 287 286 283 282 282 282 281 281 281 280 280 279 278 277 276 275 274 273 273 272 271 270 269 268 267 266 265
291 291 290 290 290 289 289 289 289 289 289 289 289 289 289 289 288 287 287 286 285 284 283 283 282 282 281 280 279 278 277 276 275 274 273 272 271 270 269 268 267 266 265
293 292 291 291 291 291 291 290 291 291 291 291 290 290 290 290 290 289 289 288 287 286 286 285 284 284 283 282 281 280 279 278 276 275 274 273 272 270 269 268 267 266 265
293 293 292 292 292 292 292 292 292 292 292 292 292 292 292 292 291 291 291 290 288 287 287 287 287 286 285 284 283 282 281 280 278 277 276 274 273 271 270 268 267 266 264
293 293 293 293 293 293 293 293 293 293 293 293 293 293 293 293 293 293 292 292 291 289 288 288 288 287 287 286 285 284 283 282 280 279 277 276 274 272 270 269 267 266 264
294 294 293 293 294 294 294 294 294 294 294 294 294 294 294 294 294 294 294 293 293 292 290 290 290 289 289 288 287 286 284 283 281 280 278 276 274 272 271 270 268 266 265
295 295 294 294 294 295 295 295 295 295 295 296 296 296 296 296 296 295 295 295 294 294 293 292 292 291 290 289 288 286 285 283 281 279 277 276 274 273 272 270 268 267 265
295 295 295 295 296 296 296 296 296 297 297 297 298 298 298 298 298 297 297 296 296 295 295 294 293 292 290 289 288 286 284 282 280 279 278 276 274 273 271 270 268 267 265
297 297 297 297 297 297 298 298 299 299 300 300 300 300 300 300 299 299 298 298 297 296 295 295 293 292 290 289 287 285 283 281 280 278 277 275 273 272 271 270 268 267 265
298 298 298 299 299 300 300 301 301 301 302 302 302 302 302 301 301 300 299 298 297 296 295 294 293 292 290 288 286 284 282 281 280 278 276 274 273 272 271 270 268 266 265
299 299 300 301 301 302 302 302 302 303 303 304 304 303 303 303 302 301 300 299 297 296 295 294 292 291 289 287 284 283 281 280 279 278 276 275 273 272 271 269 267 266 265
300 301 302 302 303 303 303 304 304 305 305 305 305 305 304 304 303 301 300 299 298 296 295 293 292 290 288 285 283 281 281 280 278 276 275 274 274 272 270 269 267 266 266
302 302 303 303 304 304 305 305 306 306 307 307 306 306 305 304 302 301 299 298 297 296 295 293 292 290 287 285 283 282 281 280 278 276 274 272 272 271 270 269 268 267 266
303 303 304 304 305 305 306 307 307 308 308 308 308 307 305 303 302 300 299 298 296 295 294 293 292 290 288 286 284 283 282 280 279 277 275 272 269 269 269 268 267 267 266
303 304 305 305 306 307 307 308 309 309 309 309 308 306 304 303 301 299 298 297 296 294 292 291 290 288 287 285 284 284 283 282 281 278 275 272 268 267 266 266 266 267 266
304 305 306 306 307 308 309 309 310 310 309 308 307 305 303 302 300 299 298 297 295 294 292 290 289 288 287 286 285 285 285 284 283 279 274 272 269 266 264 264 265 265 265
Height
5826 5825 5823 5821 5819 5817 5815 5814 5812 5810 5809 5807 5806 5804 5803 5802 5801 5800 5798 5797 5796 5795 5794 5793 5793 5792 5792 5791 5791 5790 5790 5790 5789 5789 5789 5789 5789 5789 5789 5789 5789 5790 5790
5821 5819 5817 5814 5812 5810 5808 5806 5804 5803 5801 5799 5798 5796 5795 5793 5792 5790 5789 5787 5786 5785 5784 5783 5782 5781 5781 5780 5780 5779 5779 5778 5778 5778 5778 5778 5778 5778 5778 5778 5779 5779 5779
5814 5812 5810 5808 5806 5803 5801 5799 5797 5795 5793 5791 5790 5788 5786 5784 5783 5781 5779 5778 5776 5775 5773 5772 5771 5770 5769 5768 5768 5767 5767 5766 5766 5766 5766 5765 5765 5766 5766 5766 5766 5767 5767
5807 5805 5803 5800 5798 5796 5794 5791 5789 5787 5785 5783 5782 5780 5778 5776 5774 5772 5770 5768 5766 5764 5763 5761 5760 5758 5757 5756 5755 5754 5754 5753 5753 5753 5752 5752 5752 5752 5753 5753 5753 5754 5754
5800 5797 5795 5793 5790 5788 5785 5783 5781 5779 5777 5775 5773 5771 5769 5767 5765 5762 5760 5758 5756 5754 5752 5750 5748 5746 5745 5743 5742 5741 5740 5740 5739 5739 5739 5739 5738 5739 5739 5739 5740 5740 5741
5792 5790 5787 5785 5782 5780 5777 5775 5772 5770 5768 5766 5764 5762 5760 5758 5755 5753 5750 5748 5745 5743 5741 5739 5737 5734 5732 5731 5729 5728 5726 5725 5725 5724 5724 5724 5724 5724 5724 5725 5725 5726 5727
5785 5782 5779 5777 5774 5771 5768 5766 5764 5761 5758 5756 5754 5753 5751 5748 5745 5742 5740 5737 5735 5732 5729 5727 5725 5722 5720 5718 5715 5713 5712 5710 5709 5709 5708 5708 5708 5709 5709 5709 5710 5710 5711
5777 5774 5771 5768 5765 5763 5760 5757 5754 5752 5749 5745 5743 5742 5741 5740 5736 5732 5729 5725 5722 5719 5717 5714 5711 5709 5706 5703 5701 5698 5696 5695 5693 5692 5691 5691 5691 5692 5692 5692 5693 5694 5695
5769 5766 5763 5760 5757 5754 5750 5747 5744 5742 5739 5735 5731 5728 5727 5727 5726 5724 5719 5715 5710 5707 5703 5699 5696 5693 5690 5688 5685 5682 5680 5677 5676 5674 5673 5672 5672 5672 5673 5673 5674 5675 5676
5760 5757 5754 5750 5747 5744 5741 5737 5734 5730 5728 5724 5720 5716 5712 5709 5707 5708 5708 5703 5698 5694 5689 5685 5681 5677 5673 5670 5667 5664 5662 5659 5657 5655 5653 5652 5652 5651 5652 5652 5653 5655 5656
5751 5748 5744 5741 5737 5734 5730 5727 5723 5719 5715 5712 5708 5704 5700 5695 5690 5686 5687 5687 5684 5679 5674 5669 5665 5659 5655 5651 5647 5644 5642 5639 5637 5635 5633 5631 5630 5629 5629 5629 5630 5632 5633
5742 5738 5734 5730 5727 5723 5719 5715 5711 5707 5703 5699 5694 5690 5685 5681 5676 5670 5667 5665 5664 5662 5657 5652 5646 5640 5635 5630 5626 5623 5620 5617 5615 5612 5610 5608 5606 5605 5605 5605 5605 5607 5609
5732 5728 5724 5720 5716 5712 5707 5703 5699 5694 5689 5685 5680 5675 5670 5664 5659 5653 5649 5645 5643 5641 5637 5632 5626 5620 5614 5608 5604 5599 5596 5593 5590 5587 5585 5583 5581 5580 5579 5578 5579 5580 5582
5721 5717 5713 5708 5704 5699 5695 5690 5686 5681 5676 5671 5665 5660 5654 5648 5642 5636 5630 5624 5621 5620 5616 5611 5604 5597 5590 5584 5579 5574 5571 5567 5563 5560 5558 5556 5554 5552 5551 5551 5551 5552 5553
5710 5706 5701 5697 5692 5687 5682 5677 5672 5667 5661 5656 5650 5644 5638 5632 5625 5618 5611 5604 5598 5595 5595 5590 5581 5574 5566 5560 5554 5548 5544 5539 5535 5532 5529 5527 5525 5524 5523 5523 5523 5524 5525
5698 5694 5689 5684 5679 5674 5668 5663 5658 5652 5646 5640 5634 5628 5621 5614 5607 5599 5592 5584 5576 5570 5568 5567 5557 5548 5540 5534 5528 5522 5517 5512 5508 5504 5501 5499 5498 5497 5496 5496 5496 5496 5498
5686 5681 5676 5671 5666 5660 5654 5649 5643 5637 5630 5624 5617 5610 5603 5595 5587 5579 5571 5563 5555 5546 5542 5542 5533 5524 5515 5508 5502 5495 5490 5486 5482 5479 5476 5474 5473 5472 5472 5471 5471 5472 5473
5673 5668 5663 5657 5651 5645 5639 5633 5627 5621 5614 5607 5599 5592 5584 5575 5567 5559 5550 5542 5533 5524 5516 5514 5509 5499 5491 5482 5476 5471 5467 5463 5460 5457 5455 5453 5452 5451 5450 5450 5450 5451 5452
5660 5654 5648 5642 5636 5630 5624 5617 5611 5604 5596 5589 5581 5572 5564 5555 5546 5537 5528 5519 5510 5501 5491 5485 5482 5475 5467 5460 5454 5450 5445 5443 5440 5438 5436 5434 5433 5432 5432 5432 5432 5432 5433
5646 5640 5634 5627 5621 5614 5608 5601 5594 5587 5579 5570 5561 5552 5543 5533 5524 5515 5505 5496 5486 5477 5469 5461 5456 5452 5446 5439 5434 5430 5428 5425 5423 5420 5419 5418 5417 5416 5416 5415 5416 5416 5417
5632 5625 5619 5612 5605 5598 5591 5584 5577 5569 5561 5552 5542 5532 5522 5511 5501 5491 5481 5472 5463 5455 5447 5440 5435 5431 5427 5421 5416 5412 5411 5409 5408 5405 5403 5402 5401 5402 5401 5400 5401 5401 5402
5618 5611 5604 5597 5590 5582 5574 5566 5558 5550 5541 5532 5522 5511 5500 5489 5478 5468 5458 5449 5440 5432 5426 5420 5416 5413 5409 5404 5400 5397 5395 5394 5394 5392 5389 5389 5387 5387 5386 5386 5386 5387 5388
5603 5596 5589 5581 5574 5565 5557 5548 5539 5530 5521 5511 5500 5489 5478 5467 5456 5446 5438 5429 5421 5413 5407 5402 5399 5396 5392 5389 5385 5383 5380 5379 5378 5377 5376 5376 5374 5374 5373 5372 5373 5373 5374
5589 5581 5574 5565 5557 5548 5539 5530 5520 5511 5501 5489 5478 5466 5456 5446 5435 5426 5419 5412 5406 5399 5392 5386 5383 5380 5377 5374 5371 5369 5366 5365 5365 5363 5362 5362 5362 5361 5360 5360 5360 5360 5361
5574 5566 5558 5549 5540 5531 5520 5510 5499 5490 5480 5469 5457 5445 5434 5425 5416 5407 5400 5396 5391 5385 5379 5373 5370 5366 5364 5361 5357 5355 5353 5352 5352 5351 5349 5348 5349 5348 5349 5349 5348 5348 5349
5558 5550 5542 5532 5522 5513 5501 5490 5478 5468 5459 5449 5438 5426 5415 5406 5398 5390 5384 5379 5375 5371 5366 5362 5358 5354 5351 5348 5345 5343 5341 5339 5338 5338 5336 5335 5336 5336 5337 5337 5337 5336 5337